Wind_Speed
11 11 13 15 13 15 18 20 26 26 27 26 25 26 26 25 31 27 33 32 29 25 23 23 28 43 41 35 34 39 37 29 29 28 26 22 20 16 15 14 14 14 13 12
17 16 20 15 15 14 16 21 26 24 26 26 25 26 24 23 25 32 31 37 34 30 27 26 25 31 34 40 36 39 39 33 32 31 28 21 22 19 19 17 14 14 13 16
23 22 10 9 19 17 17 19 21 23 26 27 21 24 21 22 26 32 30 40 32 28 33 27 24 32 32 33 39 40 36 36 36 35 31 31 27 21 22 18 18 18 15 15
20 20 11 8 13 20 19 19 22 20 20 16 19 15 20 22 22 23 25 39 34 33 34 31 31 32 36 34 31 35 39 39 38 35 29 25 25 22 22 19 22 19 16 14
31 26 11 23 14 18 22 8 8 14 18 15 24 12 15 23 20 24 20 28 35 34 33 34 37 36 34 35 35 32 34 36 33 28 24 23 21 19 17 20 14 17 19 19
31 33 21 15 17 6 12 5 12 12 6 7 21 18 18 20 24 23 20 22 29 31 31 36 38 41 36 33 33 33 30 29 29 28 23 20 19 21 19 18 13 14 17 18
24 16 11 12 17 12 15 7 2 5 7 15 18 16 20 24 27 29 24 29 31 37 40 36 37 42 39 36 34 33 30 29 28 30 24 19 21 19 15 13 15 15 13 16
11 16 12 7 14 14 6 10 3 6 12 12 22 18 23 22 24 38 41 40 40 34 41 38 37 37 39 37 36 31 29 29 28 29 26 27 25 20 15 10 13 13 14 19
7 8 21 21 11 13 3 8 7 5 19 6 16 24 23 23 20 29 29 36 37 34 40 39 40 38 42 39 37 33 31 29 30 29 29 24 20 15 11 13 15 17 17 15
5 9 21 21 12 9 9 7 2 4 5 4 8 7 12 17 18 24 28 27 35 34 38 37 40 47 48 47 41 33 33 31 30 27 23 21 19 18 19 20 22 19 15 12
6 2 16 27 9 7 7 3 5 2 4 4 6 8 9 8 16 22 25 34 33 36 40 40 34 36 43 39 38 34 32 30 29 26 27 25 23 23 22 21 18 16 15 16
5 5 11 26 21 9 4 11 9 2 5 8 7 2 14 19 12 23 25 35 33 39 36 39 36 31 53 41 44 42 41 35 33 33 29 25 21 19 18 15 14 14 15 19
7 4 9 18 9 5 3 11 16 7 3 9 5 5 15 17 18 15 24 33 35 38 32 43 40 35 38 40 36 33 35 38 35 30 26 21 20 16 15 12 11 16 19 16
6 4 7 4 19 20 17 3 16 7 0 3 3 10 10 16 11 4 20 26 28 30 29 26 34 36 31 43 41 40 36 33 29 25 22 21 19 19 17 18 22 20 18 15
1 8 15 19 25 29 21 8 12 0 5 8 13 11 8 12 18 18 39 36 31 31 45 45 48 29 24 20 18 31 30 28 26 25 24 26 25 22 22 24 23 19 16 13
11 5 16 19 14 12 4 4 4 8 4 14 10 9 14 14 20 25 31 26 33 37 37 49 42 38 37 38 35 29 30 30 29 30 29 27 25 26 25 23 21 18 13 10
8 7 12 7 22 24 3 21 15 16 26 12 7 11 12 14 13 21 20 27 24 25 27 32 40 46 41 36 34 34 31 30 30 31 30 29 28 27 25 22 18 16 12 8
7 8 6 7 15 2 12 23 26 25 22 18 11 10 9 5 9 22 25 24 24 22 13 24 33 37 38 36 33 33 31 31 30 31 30 28 27 25 22 21 17 13 9 8
5 4 4 3 6 7 9 18 21 18 20 20 14 6 7 7 5 14 18 20 24 28 29 30 30 33 34 36 36 35 33 30 30 31 30 28 26 24 21 17 14 11 9 6
7 1 2 6 4 3 9 24 32 17 3 20 19 15 17 1 6 3 10 14 22 30 35 36 33 29 31 32 30 31 31 32 33 32 28 24 21 19 18 15 13 12 9 7
5 2 2 4 3 2 17 24 24 3 8 24 20 21 17 5 5 7 8 14 22 29 33 35 35 35 32 30 32 35 35 33 32 30 29 25 22 19 17 16 14 12 10 11
2 5 3 2 2 2 19 11 7 8 13 19 17 11 16 16 14 11 11 15 20 30 33 33 37 36 33 32 37 38 35 30 28 25 24 23 21 18 17 15 13 15 16 19
2 1 3 2 1 2 8 2 6 12 17 15 15 8 15 14 15 14 14 14 20 26 34 36 35 33 28 27 29 31 30 28 27 26 23 21 20 19 18 17 15 16 12 12
5 3 3 3 4 5 5 9 11 16 17 19 4 6 15 15 15 18 17 16 19 22 25 26 29 32 31 27 28 30 29 27 25 25 25 25 24 23 20 19 18 17 17 12
10 5 5 1 3 2 6 5 12 14 14 9 3 13 16 16 16 20 21 21 20 22 22 23 28 31 30 28 29 27 25 24 25 25 23 21 17 14 15 15 14 16 15 10
6 3 3 2 10 5 10 10 10 10 10 5 9 13 14 16 18 21 22 21 24 24 24 27 30 30 30 28 26 24 21 20 21 22 19 17 16 14 15 16 17 14 11 9
Wind_Direction
251 252 271 290 286 291 293 270 279 284 287 257 238 234 237 230 248 227 217 240 234 204 212 215 188 161 171 172 183 190 185 192 189 192 185 192 185 211 196 215 219 232 242 208
263 244 259 277 272 269 274 274 278 267 277 276 247 242 228 228 231 244 202 225 232 187 201 212 174 156 177 178 181 191 196 189 195 193 187 184 185 198 197 207 209 232 238 216
288 291 349 261 294 258 252 264 258 264 266 273 267 243 230 225 227 233 217 214 224 184 191 188 175 169 174 184 193 195 190 189 192 194 186 189 190 194 198 199 209 211 231 229
292 288 278 253 259 273 275 255 256 259 266 265 274 252 222 227 221 223 242 197 216 202 180 178 175 177 173 182 193 195 194 196 199 202 197 191 177 183 196 200 212 215 226 247
281 288 263 299 272 251 277 297 323 292 257 281 270 256 238 215 204 216 229 193 204 193 178 177 176 182 186 181 189 194 197 201 199 200 190 186 188 194 203 211 215 233 243 243
283 290 283 262 268 223 102 339 275 294 258 262 246 241 237 207 192 209 212 218 200 206 192 181 177 173 178 180 187 191 192 192 190 187 183 192 170 203 205 220 226 248 241 240
302 287 271 221 250 244 238 176 253 236 209 235 214 223 240 219 192 196 205 213 229 203 192 180 174 175 176 178 180 184 184 186 186 181 176 176 190 211 208 229 235 236 217 213
334 323 0 238 218 249 260 165 183 274 213 215 221 208 222 219 215 194 198 202 217 209 186 179 178 176 172 177 175 182 185 184 182 179 176 183 191 207 217 235 233 211 221 218
313 290 317 305 241 241 40 226 192 240 258 235 205 206 209 224 226 184 188 206 209 208 184 177 173 175 175 176 176 180 178 180 181 179 186 184 185 188 200 184 201 222 232 237
285 294 299 282 235 207 169 142 249 242 312 277 165 204 203 190 214 204 181 194 201 205 176 174 182 175 174 165 164 166 174 176 175 178 179 173 175 188 196 202 204 222 234 235
251 311 293 304 229 260 178 81 48 7 254 271 193 176 2 330 162 167 182 181 196 194 171 173 190 175 157 163 166 163 165 167 166 170 175 178 183 189 194 202 210 213 216 193
341 282 295 298 277 292 174 165 189 42 321 315 284 223 343 312 213 170 172 177 188 188 171 167 185 176 158 157 154 153 156 154 165 170 172 178 193 186 190 198 211 202 193 165
352 329 325 331 279 168 260 111 96 90 332 259 278 308 340 322 305 168 166 175 167 185 173 172 160 170 135 140 140 152 161 170 172 171 177 177 178 191 189 182 175 161 149 146
175 263 258 262 288 300 299 7 119 144 10 291 67 335 30 306 132 81 144 153 166 194 173 125 145 114 120 126 153 158 159 159 159 159 167 167 163 157 156 153 147 145 144 144
244 293 314 297 272 264 252 350 145 184 316 51 14 340 199 33 33 37 27 353 169 189 101 121 123 155 159 121 144 142 145 148 154 154 153 154 151 147 142 145 145 143 142 142
315 294 316 303 316 331 8 2 75 29 3 69 71 35 47 18 36 38 37 17 56 64 97 110 134 137 151 157 156 149 143 142 152 153 149 146 146 145 144 142 144 142 143 139
307 320 329 304 342 319 331 354 329 63 62 101 52 11 23 5 27 48 47 24 58 70 67 96 122 138 142 143 148 143 141 148 149 146 146 146 146 146 146 145 145 147 148 140
323 322 307 309 343 5 327 320 347 65 68 47 69 14 59 13 18 35 50 63 67 97 135 104 120 125 137 142 144 143 146 147 147 144 141 144 145 143 144 142 142 139 128 116
3 310 314 316 326 316 334 341 334 347 58 34 19 38 115 145 103 50 42 64 92 105 135 143 137 138 137 138 141 145 144 146 141 137 135 137 139 141 143 139 133 125 127 125
336 359 291 317 310 266 355 331 327 300 105 10 357 347 335 150 302 34 45 83 104 121 127 138 141 140 138 137 142 138 135 134 130 127 125 129 137 144 139 133 129 123 107 86
333 21 272 356 295 46 346 338 320 286 353 330 342 330 31 69 64 122 102 100 118 129 133 139 141 137 132 134 135 128 129 124 128 135 145 147 142 135 132 128 119 116 118 105
303 325 0 299 337 359 356 3 35 300 309 324 330 339 86 104 106 107 105 109 123 126 130 139 137 131 133 139 143 138 137 140 141 136 132 130 127 122 118 118 107 97 94 80
260 13 328 339 357 243 39 31 314 337 323 329 322 14 114 119 114 117 116 123 130 130 131 135 134 129 131 140 146 140 134 136 133 130 126 122 118 112 101 92 88 90 89 86
320 109 255 310 212 326 51 357 4 351 340 341 279 129 126 131 130 129 123 131 141 140 139 140 136 135 135 136 135 133 133 134 136 133 129 132 133 132 142 146 147 143 129 115
300 282 284 62 10 304 223 355 359 355 346 24 5 135 128 138 137 141 137 135 143 146 146 146 139 133 130 131 128 129 130 133 131 131 133 130 133 132 140 155 148 150 145 147
322 345 313 282 339 302 325 350 359 360 349 354 68 108 125 136 136 140 137 136 138 143 146 141 136 131 128 130 128 128 133 136 131 125 124 126 133 128 116 114 119 121 118 115
Height
1447 1450 1441 1434 1430 1431 1432 1437 1433 1421 1414 1406 1402 1401 1402 1405 1403 1400 1406 1404 1403 1403 1407 1413 1421 1408 1425 1431 1448 1460 1467 1472 1477 1482 1486 1490 1496 1500 1506 1508 1509 1511 1514 1515
1438 1441 1429 1426 1428 1430 1432 1433 1425 1418 1415 1410 1395 1391 1392 1394 1395 1395 1396 1401 1400 1401 1404 1403 1410 1391 1428 1429 1443 1456 1464 1471 1475 1479 1483 1487 1493 1497 1501 1505 1508 1508 1512 1513
1432 1423 1427 1435 1436 1427 1427 1431 1432 1424 1413 1400 1392 1391 1388 1386 1388 1387 1387 1393 1395 1397 1405 1406 1403 1414 1420 1426 1442 1452 1461 1467 1471 1476 1479 1482 1487 1494 1497 1499 1505 1508 1510 1512
1427 1418 1420 1425 1433 1426 1421 1416 1418 1419 1414 1414 1395 1399 1382 1379 1381 1380 1380 1384 1389 1396 1402 1408 1413 1416 1423 1433 1443 1450 1457 1463 1469 1473 1478 1482 1484 1490 1495 1497 1499 1506 1509 1511
1419 1419 1418 1434 1419 1420 1421 1422 1424 1424 1417 1428 1409 1401 1374 1371 1378 1377 1374 1376 1384 1390 1397 1405 1412 1419 1429 1435 1440 1447 1453 1459 1466 1472 1477 1481 1486 1490 1495 1496 1498 1503 1506 1509
1422 1415 1413 1421 1412 1413 1426 1436 1427 1426 1421 1432 1406 1391 1372 1362 1367 1373 1373 1376 1381 1387 1394 1401 1409 1416 1426 1434 1438 1444 1450 1456 1463 1470 1476 1481 1486 1490 1490 1494 1497 1502 1505 1508
1416 1398 1399 1411 1410 1407 1412 1436 1428 1427 1423 1408 1378 1389 1369 1348 1351 1360 1368 1374 1377 1382 1390 1396 1402 1410 1418 1427 1434 1441 1447 1453 1460 1468 1474 1479 1486 1486 1490 1495 1499 1501 1503 1505
1431 1410 1400 1396 1400 1401 1406 1416 1436 1422 1398 1382 1369 1370 1354 1334 1339 1349 1359 1367 1372 1375 1382 1389 1397 1407 1415 1424 1431 1437 1445 1452 1459 1465 1472 1477 1479 1483 1487 1492 1497 1499 1501 1503
1448 1417 1397 1397 1387 1388 1429 1423 1420 1435 1403 1394 1347 1348 1334 1332 1327 1338 1352 1363 1366 1370 1375 1383 1390 1402 1411 1420 1425 1433 1442 1450 1456 1464 1470 1475 1480 1483 1485 1491 1494 1496 1500 1502
1453 1437 1400 1389 1382 1385 1398 1406 1411 1414 1405 1384 1351 1355 1338 1332 1329 1327 1342 1355 1361 1365 1370 1380 1386 1392 1400 1405 1408 1423 1438 1447 1454 1463 1470 1473 1478 1479 1482 1487 1491 1495 1497 1499
1446 1449 1413 1389 1375 1376 1394 1407 1420 1427 1422 1393 1357 1349 1332 1335 1320 1327 1338 1349 1355 1360 1364 1372 1377 1387 1396 1405 1412 1417 1429 1443 1453 1459 1464 1467 1472 1476 1482 1486 1491 1493 1495 1497
1447 1441 1426 1402 1376 1362 1370 1404 1414 1420 1406 1395 1382 1360 1343 1339 1320 1324 1333 1346 1352 1360 1365 1370 1368 1386 1391 1394 1403 1414 1420 1436 1448 1454 1460 1466 1471 1477 1481 1486 1489 1492 1494 1498
1454 1443 1434 1405 1366 1364 1371 1379 1396 1412 1415 1398 1389 1374 1360 1338 1334 1325 1331 1341 1350 1358 1360 1368 1378 1378 1376 1393 1406 1420 1429 1438 1445 1453 1460 1466 1472 1477 1481 1485 1489 1492 1496 1498
1453 1448 1441 1440 1419 1400 1386 1368 1383 1393 1411 1401 1403 1390 1372 1341 1332 1333 1336 1345 1352 1354 1362 1366 1379 1369 1399 1399 1414 1426 1435 1442 1448 1454 1459 1466 1471 1475 1479 1483 1488 1493 1496 1500
1446 1440 1434 1423 1402 1385 1372 1366 1377 1379 1375 1387 1406 1407 1380 1360 1352 1353 1351 1361 1349 1357 1373 1373 1382 1398 1410 1409 1428 1432 1439 1443 1445 1453 1460 1465 1470 1474 1479 1485 1490 1494 1497 1500
1441 1439 1429 1406 1374 1367 1366 1365 1363 1367 1367 1393 1403 1389 1374 1373 1370 1378 1379 1376 1373 1371 1388 1392 1406 1406 1421 1427 1436 1441 1441 1437 1446 1451 1459 1466 1472 1475 1481 1488 1492 1495 1498 1501
1440 1438 1432 1416 1399 1392 1378 1395 1377 1373 1391 1398 1403 1402 1390 1378 1384 1402 1404 1380 1383 1387 1387 1393 1406 1418 1423 1432 1437 1437 1440 1446 1447 1452 1461 1468 1472 1477 1484 1490 1493 1496 1498 1500
1442 1441 1431 1429 1412 1409 1418 1406 1391 1390 1409 1413 1414 1408 1414 1410 1400 1397 1406 1407 1401 1392 1399 1395 1411 1418 1427 1432 1435 1437 1445 1449 1451 1458 1463 1470 1475 1482 1487 1491 1494 1498 1500 1501
1443 1439 1440 1437 1440 1434 1422 1412 1409 1405 1417 1419 1415 1410 1412 1412 1407 1412 1409 1411 1413 1412 1410 1412 1421 1425 1430 1434 1439 1444 1449 1454 1459 1462 1467 1473 1480 1485 1489 1493 1496 1499 1501 1501
1444 1445 1447 1438 1438 1436 1436 1421 1413 1408 1415 1425 1422 1417 1412 1405 1405 1418 1421 1421 1419 1418 1420 1422 1423 1426 1431 1435 1441 1445 1451 1455 1461 1465 1471 1479 1484 1488 1492 1494 1496 1498 1501 1503
1451 1443 1446 1445 1441 1433 1435 1420 1402 1411 1436 1429 1426 1421 1419 1418 1420 1421 1424 1426 1428 1426 1427 1429 1433 1436 1441 1444 1447 1453 1459 1463 1467 1470 1474 1480 1486 1489 1492 1495 1498 1500 1502 1503
1460 1450 1442 1442 1447 1448 1442 1431 1434 1443 1437 1434 1427 1422 1422 1425 1425 1424 1424 1427 1432 1434 1435 1437 1437 1442 1447 1452 1457 1458 1461 1466 1469 1473 1478 1483 1488 1491 1495 1498 1501 1503 1505 1504
1451 1448 1450 1452 1448 1448 1446 1445 1443 1440 1436 1431 1428 1426 1425 1429 1429 1429 1427 1429 1432 1436 1438 1441 1444 1448 1455 1458 1460 1460 1464 1468 1472 1478 1483 1487 1491 1494 1499 1503 1506 1507 1510 1509
1441 1443 1445 1444 1446 1442 1444 1443 1441 1439 1433 1427 1426 1427 1427 1430 1431 1432 1433 1434 1436 1438 1439 1441 1444 1446 1450 1455 1458 1462 1467 1473 1478 1481 1485 1489 1493 1496 1498 1502 1505 1507 1509 1511
1442 1442 1440 1440 1443 1441 1442 1440 1440 1437 1433 1430 1428 1427 1429 1432 1434 1435 1437 1439 1441 1444 1446 1447 1448 1450 1454 1459 1465 1470 1475 1480 1483 1486 1489 1492 1496 1499 1502 1505 1505 1508 1508 1511
1439 1438 1440 1442 1441 1441 1439 1439 1438 1437 1435 1433 1433 1433 1434 1434 1435 1437 1439 1444 1447 1449 1451 1454 1455 1458 1460 1466 1471 1476 1480 1483 1487 1490 1494 1497 1500 1502 1504 1506 1507 1508 1510 1512